Regional Weather Roundup
Issued by NWS Kansas City/Pleasant Hill, MO

Home | Current Version | Previous Version | Text Only | Print | Product List | Glossary On
Versions: 1 2 3 4 5 6 7 8 9 10 11 12 13 14 15 16 17 18 19 20 21 22 23 24 25 26 27
000
ASUS43 KEAX 250010
RWREAX

WEATHER ROUNDUP FOR EASTERN KANSAS AND NORTHWEST MISSOURI
NATIONAL WEATHER SERVICE KANSAS CITY/PLEASANT HILL MO
700 PM CDT TUE MAY 24 2016

KSZ040-057-103>105-MOZ028-029-037-043-250100-
...KANSAS CITY METROPOLITAN AREA...

CITY           SKY/WX    TMP DP  RH WIND       PRES   REMARKS
K.C. INTL      MOSUNNY   78  66  66 S7        29.90S
6HR MIN TEMP:  71; 6HR MAX TEMP:  79; 6HR PCP: TRACE;

K.C. DOWNTOWN  SUNNY     80  64  58 S7        29.89S
6HR MIN TEMP:  73; 6HR MAX TEMP:  81;

LEES SUMMIT    CLOUDY    78  64  61 S9        29.92R
6HR MIN TEMP:  70; 6HR MAX TEMP:  79;

OLATHE - IXD   SUNNY     78  68  71 S8        29.91R
6HR MIN TEMP:  73; 6HR MAX TEMP:  79;

OLATHE - OJC   SUNNY     77  67  71 S7        29.91R
6HR MIN TEMP:  71; 6HR MAX TEMP:  77;

LAWRENCE       MOSUNNY   79  69  71 S8        29.88R

$$

MOZ001>008-011>017-020>025-030>033-038>040-044>046-053-054-250100-
...NORTHERN AND CENTRAL MISSOURI...

CITY           SKY/WX    TMP DP  RH WIND       PRES   REMARKS
ST. JOSEPH     SUNNY     79  64  60 E8        29.88F
6HR MIN TEMP:  73; 6HR MAX TEMP:  80;

MOSBY          CLEAR     77  64  65 SE5       29.90S
WARRENSBURG    MOSUNNY   75  64  69 SE8       29.93R
WHITEMAN AFB   PTSUNNY   75  66  73 S10       29.93R
6HR MIN TEMP:  68; 6HR MAX TEMP:  78;

CLINTON        CLOUDY    75  66  73 S12       29.94R
SEDALIA        MOSUNNY   75  64  68 S9        29.96R
6HR MIN TEMP:  68; 6HR MAX TEMP:  78;

WARSAW         NOT AVBL
CHILLICOTHE      N/A     77  66  68 SE5       29.94R
6HR MIN TEMP:  75; 6HR MAX TEMP:  78;

KIRKSVILLE     MOSUNNY   75  66  73 SE7       29.97R
6HR MIN TEMP:  75; 6HR MAX TEMP:  77;


$$

MOZ041-047>049-056>058-063>065-088>090-097-250100-
...EASTERN AND SOUTHERN MISSOURI...

CITY           SKY/WX    TMP DP  RH WIND       PRES   REMARKS
ST. LOUIS INTL CLOUDY    74  63  68 VRB6      29.95S
6HR MIN TEMP:  74; 6HR MAX TEMP:  87;

SPIRIT OF STL  CLOUDY    70  63  78 W7        29.96R
COLUMBIA       CLOUDY    70  65  84 S6        29.98R
JEFFERSON CITY CLOUDY    71  64  78 CALM      29.98R
ROLLA          PTSUNNY   66  63  90 SW7       29.97R
SPRINGFIELD    MOSUNNY   67  61  81 S15       30.00R
BRANSON        PTSUNNY   63  63 100 SE12      30.03F
JOPLIN         CLOUDY    75  68  78 SE13G20   29.92S
WEST PLAINS    CLOUDY    64  60  87 SE7       30.03F

$$

IAZ060-094-KSZ022-034>040-054-083-096-NEZ052-066-093-250100-
...KANSAS...SOUTHEAST NEBRASKA AND IOWA...

CITY           SKY/WX    TMP DP  RH WIND       PRES   REMARKS
TOPEKA         PTSUNNY   80  68  66 SE9       29.87R
6HR MIN TEMP:  75; 6HR MAX TEMP:  82; 6HR PCP: TRACE;

MANHATTAN      SUNNY     82  66  58 S10       29.82F
EMPORIA        MOSUNNY   80  71  74 S10       29.86F
CHANUTE        CLOUDY    78  70  76 SE9       29.87F
WICHITA        MOSUNNY   81  69  67 SE17      29.79F
OMAHA          MOSUNNY   81  59  47 SE7       29.86S
LINCOLN        MOSUNNY   80  60  50 S6        29.86F
FALLS CITY     SUNNY     82  63  52 S3        29.85F
LAMONI         SUNNY     78  60  53 SE9       29.92R
DES MOINES     MOSUNNY   82  58  43 S8        29.89R

$$





USA.gov is the U.S. government's official web portal to all federal, state and local government web resources and services.